This is the latest recevied weather packets stored in our database for station/object KA3BQE-13. If no packets are shown the sender has not sent any weather packets the latest 10 day(s).
| Time | Temp. | Humidity | Pressure | Rain* | Wind** | Luminosity | Snow |
|---|---|---|---|---|---|---|---|
| 1778091173 | 15.56° C | 41% | 1017 hPa | 0 mm | - | 982 W/m² | - |
| 1778090869 | 13.89° C | 51% | 1017 hPa | 0 mm | - | 970 W/m² | - |
| 1778090565 | 13.33° C | 50% | 1016.9 hPa | 0 mm | - | 1025 W/m² | - |
| 1778090262 | 13.89° C | 50% | 1017.3 hPa | 0 mm | - | 1017 W/m² | - |
| 1778089959 | 14.44° C | 47% | 1017.2 hPa | 0 mm | - | 223 W/m² | - |
| 1778089656 | 15° C | 54% | 1017.2 hPa | 0 mm | - | 911 W/m² | - |
| 1778089353 | 15.56° C | 52% | 1017.2 hPa | 0 mm | - | 883 W/m² | - |
| 1778089051 | 15° C | 46% | 1017.1 hPa | 0 mm | - | 875 W/m² | - |
| 1778088742 | 15° C | 52% | 1017.3 hPa | 0 mm | - | 887 W/m² | - |
| 1778088439 | 14.44° C | 49% | 1017.1 hPa | 0 mm | - | 866 W/m² | - |
| 1778088136 | 14.44° C | 44% | 1017.3 hPa | 0 mm | - | 855 W/m² | - |
| 1778087834 | 15° C | 49% | 1017.4 hPa | 0 mm | - | 862 W/m² | - |
| 1778087531 | 13.89° C | 49% | 1017.3 hPa | 0 mm | - | 872 W/m² | - |
| 1778087228 | 13.89° C | 49% | 1017.4 hPa | 0 mm | - | 591 W/m² | - |
| 1778086925 | 14.44° C | 52% | 1017.5 hPa | 0 mm | - | 752 W/m² | - |
| 1778086623 | 13.89° C | 52% | 1017.4 hPa | 0 mm | - | 754 W/m² | - |
| 1778086319 | 12.78° C | 48% | 1017.4 hPa | 0 mm | - | 720 W/m² | - |
| 1778086016 | 14.44° C | 46% | 1017.3 hPa | 0 mm | - | 800 W/m² | - |
| 1778085714 | 14.44° C | 51% | 1017.3 hPa | 0 mm | - | 829 W/m² | - |
| 1778085410 | 14.44° C | 53% | 1017.3 hPa | 0 mm | - | 538 W/m² | - |
| 1778085105 | 13.33° C | 47% | 1017.1 hPa | 0 mm | - | 724 W/m² | - |
| 1778084801 | 12.78° C | 57% | 1017 hPa | 0 mm | - | 877 W/m² | - |
| 1778084499 | 13.89° C | 59% | 1017 hPa | 0 mm | - | 806 W/m² | - |
| 1778084196 | 13.33° C | 57% | 1017.1 hPa | 0 mm | - | 777 W/m² | - |
| 1778083893 | 12.78° C | 55% | 1016.8 hPa | 0 mm | - | 739 W/m² | - |
* Rain latest hour (hover to see other rain measurements)
** Current wind speed in m/s (hover to see current wind gust speed)